SCP
0 0 0 0 0 0 0 0 0 0 0 0 0 0 0 0 0 0 0 0 0 1 1 1 1 1 1 1 0 0 0 0 0 0 0 0 0 0 0 0 0 0 0 0 0 0 0 0 0
0 0 0 0 0 0 0 0 0 0 0 0 0 0 0 0 0 0 0 0 1 1 1 1 1 1 1 1 1 1 0 0 0 0 0 0 0 0 0 0 0 0 0 0 0 0 0 0 0
0 0 0 0 0 0 0 0 0 0 0 0 0 0 0 0 0 0 0 1 1 1 0 1 1 1 1 1 1 1 1 0 0 0 0 0 0 0 0 0 0 0 0 0 0 0 0 0 0
0 0 0 0 0 0 0 0 0 0 0 0 0 0 0 0 0 0 0 1 1 0 0 1 1 1 1 1 1 1 1 1 0 0 0 0 0 0 0 0 0 0 0 0 0 0 0 0 0
0 0 0 0 0 0 0 0 0 0 0 0 0 0 0 0 0 0 1 1 0 0 0 1 1 1 1 1 1 1 1 1 1 0 0 0 0 0 0 0 0 0 0 0 0 0 0 0 0
0 0 0 0 0 0 0 0 0 0 0 0 0 0 0 0 0 0 0 0 0 1 1 1 1 1 1 1 1 1 1 1 1 1 0 0 0 0 0 0 0 0 0 0 0 0 0 0 0
0 0 0 0 0 0 0 0 0 0 0 0 0 0 0 0 0 0 0 1 1 1 1 1 1 1 1 1 1 1 1 1 1 1 0 0 0 0 0 0 0 0 0 0 0 0 0 0 0
0 0 0 0 0 0 0 0 0 0 0 0 0 0 0 1 1 1 1 1 1 1 1 1 1 1 1 1 1 1 1 1 1 1 0 0 0 0 0 0 0 0 0 0 0 0 0 0 0
0 0 0 0 0 0 0 0 0 0 0 0 0 0 1 1 1 1 1 1 1 1 1 1 1 1 1 1 1 1 1 1 1 1 0 0 0 0 0 0 0 0 0 0 0 0 0 0 0
0 0 0 0 0 0 0 0 0 0 0 1 1 1 1 1 1 1 1 1 1 1 1 1 1 1 1 1 1 1 1 1 1 0 0 0 0 0 0 0 0 0 0 0 0 0 0 0 0
0 0 0 0 0 0 0 0 0 0 0 0 1 1 1 1 1 1 1 1 1 1 1 1 1 1 1 1 1 1 1 1 1 1 0 0 0 0 0 0 0 0 0 0 0 0 0 0 0
0 0 0 0 0 0 0 0 0 0 0 0 1 1 1 1 1 1 1 1 1 1 1 1 1 1 1 1 1 1 1 1 1 1 0 0 0 0 0 0 0 0 0 0 0 0 0 0 0
0 0 0 0 0 0 0 0 0 0 0 0 1 1 1 1 1 1 1 1 1 1 1 1 1 1 1 1 1 1 1 1 1 1 0 0 0 0 0 0 0 0 0 0 0 0 0 0 0
0 0 0 0 0 0 0 0 0 0 0 0 1 1 1 1 1 1 1 2 2 1 1 1 1 1 1 1 1 1 1 1 1 1 0 0 0 0 0 0 0 0 0 0 0 0 0 0 0
0 0 0 0 0 0 0 0 0 0 0 1 1 1 1 1 1 1 1 2 2 2 2 2 1 1 1 2 1 1 1 1 1 1 0 0 0 0 0 0 0 0 0 0 0 0 0 0 0
0 0 0 0 0 0 0 0 0 0 0 1 1 1 1 1 1 1 1 1 1 1 2 1 1 1 1 1 1 1 1 1 1 1 0 0 0 0 0 0 0 0 0 0 0 0 0 0 0
0 0 0 0 0 0 0 0 0 0 0 1 1 1 1 1 1 1 1 1 1 1 1 1 1 1 1 1 1 1 1 1 1 0 0 0 0 0 0 0 0 0 0 0 0 0 0 0 0
0 0 0 0 0 0 0 0 0 0 0 1 1 1 1 1 1 1 1 1 1 1 1 1 1 1 1 1 1 1 1 0 0 0 0 0 0 0 0 0 0 0 0 0 0 0 0 0 0
0 0 0 0 0 0 0 0 0 0 0 1 1 1 1 1 0 0 1 1 1 1 1 1 1 1 1 1 0 0 0 0 0 0 0 0 0 0 0 0 0 0 0 0 0 0 0 0 0
0 0 0 0 0 0 0 0 0 0 0 1 1 1 1 0 0 0 1 1 1 1 1 1 1 1 1 0 0 0 0 0 0 0 0 0 0 0 0 0 0 0 0 0 0 0 0 0 0
0 0 0 0 0 0 0 0 0 0 0 0 1 0 0 0 0 0 1 1 1 1 1 1 1 1 1 0 0 0 0 0 0 0 0 0 0 0 0 0 0 0 0 0 0 0 0 0 0
0 0 0 0 0 0 0 0 0 0 0 0 0 0 0 0 0 0 1 1 1 1 1 1 1 1 1 0 0 0 0 0 0 0 0 0 0 0 0 0 0 0 0 0 0 0 0 0 0
0 0 0 0 0 0 0 0 0 0 0 0 0 0 0 0 0 0 0 1 1 1 1 1 0 0 0 0 0 0 0 0 0 0 0 0 0 0 0 0 0 0 0 0 0 0 0 0 0
0 0 0 0 0 0 0 0 0 0 0 0 0 0 0 0 0 0 0 1 1 1 1 1 0 0 0 0 0 0 0 0 0 0 0 0 0 0 0 0 0 0 0 0 0 0 0 0 0
0 0 0 0 0 0 0 0 0 0 0 0 0 0 0 0 0 0 0 0 1 1 1 0 0 0 0 0 0 0 0 0 0 0 0 0 0 0 0 0 0 0 0 0 0 0 0 0 0
0 0 0 0 0 0 0 0 0 0 0 0 0 0 0 0 0 0 0 0 0 0 0 0 0 0 0 0 0 0 0 0 0 0 0 0 0 0 0 0 0 0 0 0 0 0 0 0 0
0 0 0 0 0 0 0 0 0 0 0 0 0 0 0 0 0 0 0 0 0 0 0 0 0 0 0 0 0 0 0 0 0 0 0 0 0 0 0 0 0 0 0 0 0 0 0 0 0
0 0 0 0 0 0 0 0 0 0 0 0 0 0 0 0 0 0 0 0 0 0 0 0 0 0 0 0 0 0 0 0 0 0 0 0 0 0 0 0 0 0 0 0 0 0 0 0 0
0 0 0 0 0 0 0 0 0 0 0 0 0 0 0 0 0 0 0 0 0 0 0 0 0 0 0 0 0 0 0 0 0 0 0 0 0 0 0 0 0 0 0 0 0 0 0 0 0
0 0 0 0 0 0 0 0 0 0 0 0 0 0 0 0 0 0 0 0 0 0 0 0 0 0 0 0 0 0 0 0 0 0 0 0 0 0 0 0 0 0 0 0 0 0 0 0 0
Wind_Speed
3 2 2 2 4 3 3 5 3 2 2 3 5 6 6 4 4 4 3 12 15 14 11 14 16 15 15 14 13 13 13 13 12 12 11 11 11 10 10 10 9 8 7 7 6 5 4 4 3
1 1 2 4 4 1 5 4 1 1 3 5 5 7 6 5 5 8 7 12 16 14 11 12 16 15 15 14 14 13 13 13 12 11 11 10 10 9 9 8 8 7 6 5 5 4 3 3 2
2 1 3 3 2 4 5 3 1 1 2 4 3 4 5 5 6 6 9 16 15 11 9 12 17 16 15 15 14 14 13 12 12 11 10 9 9 8 8 7 7 6 5 5 4 3 3 2 2
1 3 4 3 4 5 5 4 2 1 1 2 5 5 4 4 6 9 15 16 15 11 9 11 16 16 15 14 14 14 13 12 12 11 10 9 8 8 7 7 6 6 5 4 4 3 3 3 3
3 4 3 1 5 5 5 5 2 1 1 3 6 6 4 4 12 16 15 15 15 11 9 10 16 16 16 15 14 13 13 12 11 10 10 9 8 7 7 6 6 5 5 5 4 4 3 4 4
3 4 2 3 5 5 4 3 2 2 3 4 7 7 3 6 14 15 14 13 13 13 10 10 15 16 15 15 13 12 11 11 10 10 9 8 8 7 7 7 6 6 5 5 5 4 5 5 5
3 3 2 3 3 4 4 2 3 4 3 3 5 7 4 6 11 13 13 12 11 11 9 7 8 10 14 14 13 12 11 10 10 9 9 9 8 8 7 7 7 6 6 6 5 5 6 6 6
5 3 2 2 2 4 3 1 1 5 4 4 5 7 6 7 10 11 11 11 10 9 7 7 6 6 6 8 12 13 12 11 10 9 9 8 8 7 7 7 7 7 6 6 7 6 6 6 7
3 3 3 4 3 4 2 3 0 4 6 3 3 5 8 12 13 12 11 8 8 8 6 6 6 5 5 6 9 10 10 10 9 7 8 6 3 3 4 6 7 7 6 6 6 6 6 6 7
4 3 7 6 4 3 1 2 3 4 6 5 6 7 11 12 12 13 12 11 10 9 7 6 6 6 6 6 5 4 5 5 4 3 4 3 2 2 3 4 6 6 6 6 6 5 5 5 3
4 6 6 5 5 3 1 0 2 6 4 6 10 12 10 10 10 10 10 10 10 10 8 7 7 6 6 4 4 3 2 3 3 4 3 2 1 1 2 1 2 3 4 3 3 3 2 2 2
3 6 6 5 4 2 3 2 2 3 5 9 12 14 11 10 9 9 9 9 8 8 8 8 7 7 6 5 4 4 3 3 3 3 4 3 2 1 1 1 2 1 1 2 2 2 3 3 3
3 6 6 6 5 4 3 3 4 3 6 9 12 12 11 10 7 5 7 7 7 6 5 6 7 6 6 5 3 4 3 3 3 3 3 3 2 2 1 1 1 1 1 1 2 2 2 3 3
5 5 5 4 3 2 5 2 4 4 8 10 11 9 9 8 7 6 7 7 6 5 4 4 4 4 4 4 3 3 3 3 2 2 3 3 2 2 1 1 1 1 1 1 1 2 2 2 2
2 3 6 3 1 1 5 3 2 5 8 9 9 9 8 6 6 6 7 7 6 5 5 4 4 3 3 3 4 3 3 2 2 2 2 2 2 2 1 1 1 1 1 1 1 1 2 2 2
3 3 3 6 1 1 6 2 3 5 9 8 8 8 7 5 6 5 7 7 6 6 5 4 4 4 3 2 2 2 2 3 2 2 1 1 1 1 1 0 1 1 1 0 1 1 2 2 2
5 2 3 6 2 0 4 3 5 4 9 8 7 6 6 5 5 5 6 7 6 6 7 5 4 4 3 3 2 2 2 2 1 1 1 1 1 1 1 0 1 1 1 1 1 1 1 2 3
3 3 3 4 4 3 3 1 2 4 8 8 7 6 5 5 5 5 6 7 6 5 6 6 4 4 3 3 2 2 2 1 1 1 1 1 1 1 1 1 1 1 1 1 1 1 2 2 2
3 2 3 5 3 2 1 1 1 3 6 6 5 5 4 3 3 4 4 6 6 5 6 5 4 3 3 2 1 1 0 0 0 0 1 1 1 1 1 1 1 1 0 1 1 1 2 2 1
1 2 3 4 2 1 2 3 2 4 4 6 6 5 4 3 3 3 3 4 4 5 5 4 4 3 2 2 1 1 1 1 1 0 0 0 1 1 1 1 0 0 0 1 2 1 1 2 1
2 1 3 4 5 3 4 3 2 3 4 5 4 4 4 4 4 3 3 3 3 4 4 3 3 3 3 2 2 1 2 2 1 1 1 1 0 1 1 1 1 0 0 0 1 1 0 1 2
2 4 2 3 3 3 2 1 2 1 4 4 3 3 2 2 3 3 4 4 3 3 4 3 3 3 2 2 3 3 2 1 1 1 0 1 0 1 1 0 0 0 0 0 1 0 0 0 1
3 4 3 1 1 2 4 3 2 1 2 2 1 2 2 2 2 4 4 4 4 3 4 3 3 2 2 2 3 3 2 1 1 0 1 1 1 0 1 0 0 0 0 1 1 1 1 1 1
1 4 6 5 5 2 2 2 2 1 0 0 1 1 2 2 2 3 2 2 2 2 2 3 3 2 1 1 2 3 3 2 2 1 0 1 1 1 0 0 0 0 1 1 1 1 1 1 1
6 6 5 7 5 2 1 3 2 1 0 2 2 1 2 3 3 2 1 2 2 2 2 2 3 2 1 1 1 1 2 2 2 2 1 1 1 1 2 1 1 1 1 1 1 1 1 1 1
1 5 5 2 2 4 3 1 2 0 1 2 2 2 2 2 2 2 2 1 2 2 2 2 3 2 1 1 1 1 1 0 1 1 2 2 2 3 2 2 1 1 1 1 1 1 1 1 1
2 2 4 6 1 1 2 1 2 2 3 3 4 3 2 1 1 1 1 2 1 1 2 3 4 2 2 2 2 1 1 1 1 2 2 2 2 2 1 1 1 1 1 1 1 1 1 1 2
3 2 5 4 2 1 3 1 2 1 2 2 2 1 1 1 1 1 1 1 1 1 0 1 3 3 3 2 2 2 2 2 2 1 2 2 2 2 1 1 1 1 1 1 1 1 2 2 2
4 4 4 2 3 4 2 4 2 2 2 1 1 1 0 1 1 1 1 1 1 1 1 0 1 1 2 2 2 1 2 2 1 2 2 2 2 2 2 2 1 2 2 1 1 2 2 2 2
2 1 3 2 2 2 2 4 1 2 2 1 1 1 0 0 1 2 1 1 1 1 0 0 1 1 1 2 2 1 2 1 1 2 3 2 2 2 2 2 1 1 1 1 1 2 2 2 3
Wind_Direction
231 222 141 76 55 48 262 253 243 356 40 64 86 91 95 80 118 146 136 138 137 142 149 147 143 142 140 137 135 133 131 131 129 126 125 125 125 126 126 126 127 129 129 130 131 133 133 131 131
225 190 71 62 83 33 276 258 289 244 147 105 78 85 82 74 89 116 129 139 137 143 148 149 145 144 143 141 140 139 137 136 135 134 134 134 133 134 135 135 135 136 135 138 142 142 141 142 147
255 168 93 84 137 194 248 271 203 78 105 107 102 80 86 111 120 138 147 141 136 142 147 152 148 146 146 146 146 145 144 142 141 141 142 143 142 142 144 145 146 147 148 152 156 159 163 176 196
73 55 54 79 244 231 230 256 250 93 54 68 106 84 73 97 135 141 141 142 138 142 146 153 150 148 149 150 149 149 149 149 148 149 151 152 152 152 153 156 159 161 165 171 179 188 197 213 228
71 79 58 306 259 251 240 234 202 106 101 104 104 99 68 67 116 132 142 145 143 145 149 155 154 153 154 154 153 153 153 153 154 155 157 158 160 162 166 170 174 178 182 188 196 205 215 229 239
57 74 86 261 266 277 269 247 100 92 105 109 111 108 91 117 124 139 145 147 146 148 151 155 158 157 156 155 153 154 155 157 159 160 162 164 169 175 180 185 190 194 196 203 211 219 231 239 246
127 113 203 239 263 277 264 263 138 128 115 145 130 114 124 130 140 144 142 141 140 143 148 152 155 158 159 158 156 158 163 165 166 168 170 173 181 188 192 196 200 205 211 219 226 231 237 245 254
158 110 296 272 259 270 249 263 148 131 122 120 116 130 156 158 141 131 129 131 135 139 152 158 157 159 161 162 163 166 172 171 172 177 181 187 193 199 204 206 211 217 224 232 237 241 245 251 259
124 78 260 249 240 262 226 150 223 76 104 84 78 134 144 139 132 127 124 126 136 145 159 158 159 163 167 170 173 173 177 179 181 188 192 197 205 207 215 220 220 227 235 244 248 249 253 259 261
121 171 231 225 215 228 247 143 145 93 87 86 83 94 122 132 134 138 142 149 158 164 168 164 167 170 170 175 167 175 178 180 184 187 192 194 196 205 210 228 231 238 243 248 251 257 262 261 262
175 206 237 255 243 210 198 182 113 128 126 156 145 143 140 134 136 142 150 157 166 167 167 171 177 177 174 175 165 173 176 174 186 193 193 195 191 207 225 231 247 251 251 253 261 259 259 256 251
227 250 236 250 251 227 213 156 98 126 172 157 146 145 143 140 147 150 156 161 161 158 169 169 175 174 177 173 169 168 169 171 178 190 188 179 181 195 218 223 230 228 240 239 245 248 260 263 262
255 262 255 250 251 211 145 124 122 133 138 135 136 139 145 147 147 142 146 142 140 146 159 166 162 163 169 165 169 162 165 168 175 183 190 180 179 193 213 236 233 234 234 238 247 251 262 263 268
248 267 285 269 242 223 139 138 106 167 148 137 139 142 140 143 143 129 124 125 126 130 137 135 137 151 153 151 155 156 160 161 167 182 188 184 183 184 193 235 249 249 248 249 242 249 258 262 267
290 333 326 299 286 207 113 67 142 163 138 130 132 132 129 130 128 131 135 131 130 130 123 122 128 118 125 141 152 146 154 151 161 180 180 177 172 167 170 196 246 262 272 297 292 300 297 293 295
8 19 321 292 336 287 100 143 231 174 132 126 124 124 123 120 122 122 122 119 124 126 117 115 119 110 109 113 133 133 138 139 149 153 152 160 144 125 116 141 261 272 284 289 283 290 301 297 297
10 343 286 299 315 125 107 178 228 180 131 129 127 127 127 122 121 126 127 128 137 137 129 122 109 114 119 107 91 90 102 113 120 113 123 140 124 117 116 143 295 320 333 313 296 313 274 285 292
272 287 297 291 315 71 96 193 206 145 129 128 127 125 125 132 148 142 139 136 135 134 126 126 114 111 113 107 90 64 55 60 80 103 161 161 151 122 123 112 2 17 10 332 321 296 286 264 267
213 279 290 285 283 63 136 138 103 111 108 114 123 128 136 136 140 125 130 128 127 126 122 128 123 123 116 111 117 111 187 46 49 206 177 197 158 125 118 78 34 19 17 307 314 295 306 294 310
15 358 316 302 315 82 104 87 79 80 111 130 132 132 136 104 78 81 93 107 127 128 128 133 134 134 133 144 155 160 160 161 182 256 52 185 152 140 133 123 113 349 6 348 330 332 322 301 329
335 267 287 300 333 18 87 41 42 49 73 85 97 121 136 133 140 132 102 103 113 119 134 140 144 146 143 135 110 90 71 55 37 2 321 300 186 165 140 139 126 102 144 280 298 308 104 292 303
299 271 284 306 9 316 83 133 302 82 60 57 66 80 108 141 135 139 139 131 136 146 131 122 129 135 137 128 119 121 131 156 213 212 229 309 290 193 158 149 140 167 184 275 304 4 258 185 299
246 282 312 310 93 9 25 101 292 47 49 15 57 87 102 132 141 140 146 156 147 150 137 135 124 117 119 138 140 134 141 171 160 93 63 354 330 69 93 50 42 357 297 289 301 314 298 205 213
335 10 14 34 65 44 317 113 291 306 275 36 58 77 96 95 100 117 130 121 118 117 134 137 132 146 144 138 147 154 160 152 121 105 324 313 308 306 330 314 313 287 292 294 287 280 269 246 232
39 62 26 9 16 285 329 92 252 286 107 139 151 127 110 104 94 92 117 137 135 127 127 140 141 157 164 134 115 134 160 164 176 193 209 232 274 269 260 242 252 257 262 264 272 272 269 251 241
352 113 137 174 246 289 358 105 248 258 16 77 106 116 96 105 120 125 120 146 152 149 147 152 147 146 133 128 148 158 130 180 224 215 208 219 228 238 233 226 227 248 269 286 294 294 285 281 266
43 24 159 135 60 11 321 356 321 34 37 49 59 57 40 43 135 139 121 107 109 157 195 183 171 164 161 156 153 157 177 205 235 248 232 234 247 239 219 220 224 261 279 281 282 297 296 297 279
89 108 65 75 84 322 311 282 257 288 12 4 15 4 3 18 73 104 95 109 132 131 274 205 178 182 182 175 179 170 215 226 239 261 259 265 265 241 218 224 224 239 263 275 270 275 285 300 291
15 30 73 98 154 156 244 270 223 189 216 226 239 266 273 73 115 140 121 106 100 71 48 181 160 158 176 185 195 191 237 244 253 270 273 260 242 222 215 220 227 243 263 278 274 283 289 297 298
81 85 116 122 278 177 180 263 289 169 210 217 266 300 316 114 163 158 143 103 73 61 51 282 178 154 182 190 191 212 240 262 279 280 285 260 235 226 225 224 231 244 257 260 254 285 304 291 294